Time,TemperatureF,DewpointF,PressureIn,WindDirection,WindDirectionDegrees,WindSpeedMPH,WindSpeedGustMPH,Humidity,HourlyPrecipIn,Conditions,Clouds,dailyrainin,SoftwareType,DateUTC
2013-04-14 00:03:00,46.0,28.0,-100.00,NW,305,2.0,3.0,49,0.00,,,-99.99,,2013-04-14 04:03:00,
2013-04-14 00:12:00,45.0,29.0,-100.00,WSW,250,2.0,3.0,53,0.00,,,-99.99,,2013-04-14 04:12:00,
2013-04-14 00:23:00,45.0,29.0,-100.00,WSW,250,2.0,3.0,53,0.00,,,-99.99,,2013-04-14 04:23:00,
2013-04-14 00:33:00,44.0,29.0,-100.00,SW,225,1.0,1.0,55,0.00,,,-99.99,,2013-04-14 04:33:00,
2013-04-14 00:43:00,44.0,30.0,-100.00,WSW,245,0.0,1.0,57,0.00,,,-99.99,,2013-04-14 04:43:00,
2013-04-14 00:52:00,44.0,30.0,-100.00,WSW,245,0.0,1.0,57,0.00,,,-99.99,,2013-04-14 04:52:00,
2013-04-14 01:03:00,44.0,30.0,-100.00,SW,220,1.0,2.0,58,0.00,,,-99.99,,2013-04-14 05:03:00,
2013-04-14 01:12:00,44.0,30.0,-100.00,SW,230,1.0,2.0,59,0.00,,,-99.99,,2013-04-14 05:12:00,
2013-04-14 01:22:00,44.0,30.0,-100.00,SW,230,1.0,2.0,59,0.00,,,-99.99,,2013-04-14 05:22:00,
2013-04-14 01:32:00,44.0,31.0,-100.00,South,170,0.0,0.0,59,0.00,,,-99.99,,2013-04-14 05:32:00,
2013-04-14 01:42:00,44.0,30.0,-100.00,West,270,1.0,2.0,58,0.00,,,-99.99,,2013-04-14 05:42:00,
2013-04-14 01:52:00,44.0,30.0,-100.00,West,270,1.0,2.0,58,0.00,,,-99.99,,2013-04-14 05:52:00,
2013-04-14 02:02:00,44.0,30.0,-100.00,WSW,240,1.0,1.0,59,0.00,,,-99.99,,2013-04-14 06:02:00,
2013-04-14 02:12:00,44.0,30.0,-100.00,SW,215,1.0,1.0,59,0.00,,,-99.99,,2013-04-14 06:12:00,
2013-04-14 02:22:00,44.0,30.0,-100.00,SW,215,1.0,1.0,59,0.00,,,-99.99,,2013-04-14 06:22:00,
2013-04-14 02:32:00,44.0,31.0,-100.00,West,280,2.0,2.0,60,0.00,,,-99.99,,2013-04-14 06:32:00,
2013-04-14 02:42:00,44.0,31.0,-100.00,NW,310,1.0,3.0,61,0.00,,,-99.99,,2013-04-14 06:42:00,
2013-04-14 02:52:00,44.0,31.0,-100.00,NW,310,1.0,3.0,61,0.00,,,-99.99,,2013-04-14 06:52:00,
2013-04-14 03:02:00,46.0,32.0,-100.00,West,270,4.0,9.0,57,0.00,,,-99.99,,2013-04-14 07:02:00,
2013-04-14 03:12:00,46.0,31.0,-100.00,NW,305,5.0,7.0,57,0.00,,,-99.99,,2013-04-14 07:12:00,
2013-04-14 03:22:00,46.0,31.0,-100.00,NW,305,5.0,7.0,57,0.00,,,-99.99,,2013-04-14 07:22:00,
2013-04-14 03:33:00,45.0,31.0,-100.00,North,0,6.0,9.0,58,0.00,,,-99.99,,2013-04-14 07:33:00,
2013-04-14 03:42:00,44.0,31.0,-100.00,NNW,345,2.0,2.0,59,0.00,,,-99.99,,2013-04-14 07:42:00,
2013-04-14 03:52:00,44.0,31.0,-100.00,NNW,345,2.0,2.0,59,0.00,,,-99.99,,2013-04-14 07:52:00,
2013-04-14 04:03:00,43.0,31.0,-100.00,NW,320,4.0,5.0,61,0.00,,,-99.99,,2013-04-14 08:03:00,
2013-04-14 04:12:00,42.0,31.0,-100.00,West,270,4.0,4.0,63,0.00,,,-99.99,,2013-04-14 08:12:00,
2013-04-14 04:22:00,42.0,31.0,-100.00,West,270,4.0,4.0,63,0.00,,,-99.99,,2013-04-14 08:22:00,
2013-04-14 04:32:00,42.0,31.0,-100.00,NNW,330,6.0,6.0,65,0.00,,,-99.99,,2013-04-14 08:32:00,
2013-04-14 04:42:00,42.0,31.0,-100.00,WNW,290,4.0,5.0,65,0.00,,,-99.99,,2013-04-14 08:42:00,
2013-04-14 04:52:00,42.0,31.0,-100.00,WNW,290,4.0,5.0,65,0.00,,,-99.99,,2013-04-14 08:52:00,
2013-04-14 05:03:00,42.0,31.0,-100.00,SW,230,3.0,6.0,66,0.00,,,-99.99,,2013-04-14 09:03:00,
2013-04-14 05:12:00,42.0,31.0,-100.00,NW,305,6.0,7.0,66,0.00,,,-99.99,,2013-04-14 09:12:00,
2013-04-14 05:22:00,42.0,31.0,-100.00,NW,305,6.0,7.0,66,0.00,,,-99.99,,2013-04-14 09:22:00,
2013-04-14 05:33:00,41.0,30.0,-100.00,SW,220,2.0,4.0,64,0.00,,,-99.99,,2013-04-14 09:33:00,
2013-04-14 05:43:00,41.0,28.0,-100.00,ESE,120,1.0,2.0,60,0.00,,,-99.99,,2013-04-14 09:43:00,
2013-04-14 05:53:00,41.0,28.0,-100.00,ESE,120,1.0,2.0,60,0.00,,,-99.99,,2013-04-14 09:53:00,
2013-04-14 06:03:00,41.0,27.0,-100.00,NW,305,5.0,7.0,59,0.00,,,-99.99,,2013-04-14 10:03:00,
2013-04-14 06:13:00,40.0,26.0,-100.00,West,260,5.0,9.0,57,0.00,,,-99.99,,2013-04-14 10:13:00,
2013-04-14 06:23:00,40.0,26.0,-100.00,West,260,5.0,9.0,57,0.00,,,-99.99,,2013-04-14 10:23:00,
2013-04-14 06:33:00,40.0,26.0,-100.00,West,270,4.0,7.0,57,0.00,,,-99.99,,2013-04-14 10:33:00,
2013-04-14 06:42:00,40.0,25.0,-100.00,WNW,290,6.0,9.0,57,0.00,,,-99.99,,2013-04-14 10:42:00,
2013-04-14 06:52:00,40.0,25.0,-100.00,WNW,290,6.0,9.0,57,0.00,,,-99.99,,2013-04-14 10:52:00,
2013-04-14 07:02:00,39.0,25.0,-100.00,NNW,335,1.0,1.0,57,0.00,,,-99.99,,2013-04-14 11:02:00,
2013-04-14 07:13:00,38.0,25.0,-100.00,WNW,285,2.0,2.0,59,0.00,,,-99.99,,2013-04-14 11:13:00,
2013-04-14 07:23:00,38.0,25.0,-100.00,WNW,285,2.0,2.0,59,0.00,,,-99.99,,2013-04-14 11:23:00,
2013-04-14 07:42:00,41.0,26.0,-100.00,West,270,3.0,6.0,54,0.00,,,-99.99,,2013-04-14 11:42:00,
2013-04-14 07:52:00,41.0,26.0,-100.00,West,270,3.0,6.0,54,0.00,,,-99.99,,2013-04-14 11:52:00,
2013-04-14 08:02:00,42.0,26.0,-100.00,WNW,285,2.0,4.0,53,0.00,,,-99.99,,2013-04-14 12:02:00,
2013-04-14 08:12:00,42.0,25.0,-100.00,North,0,3.0,6.0,50,0.00,,,-99.99,,2013-04-14 12:12:00,
2013-04-14 08:22:00,42.0,25.0,-100.00,North,0,3.0,6.0,50,0.00,,,-99.99,,2013-04-14 12:22:00,
2013-04-14 08:32:00,43.0,25.0,-100.00,SSW,205,1.0,2.0,49,0.00,,,-99.99,,2013-04-14 12:32:00,
2013-04-14 09:02:00,45.0,25.0,-100.00,West,270,8.0,11.0,46,0.00,,,-99.99,,2013-04-14 13:02:00,
2013-04-14 09:12:00,44.0,25.0,-100.00,WSW,240,4.0,6.0,47,0.00,,,-99.99,,2013-04-14 13:12:00,
2013-04-14 09:22:00,44.0,25.0,-100.00,WSW,240,4.0,6.0,47,0.00,,,-99.99,,2013-04-14 13:22:00,
2013-04-14 09:33:00,46.0,26.0,-100.00,WSW,255,1.0,2.0,45,0.00,,,-99.99,,2013-04-14 13:33:00,
2013-04-14 09:42:00,47.0,26.0,-100.00,South,190,1.0,1.0,43,0.00,,,-99.99,,2013-04-14 13:42:00,
2013-04-14 09:52:00,47.0,26.0,-100.00,South,190,1.0,1.0,43,0.00,,,-99.99,,2013-04-14 13:52:00,
2013-04-14 10:02:00,48.0,25.0,-100.00,SSE,150,1.0,2.0,41,0.00,,,-99.99,,2013-04-14 14:02:00,
2013-04-14 10:12:00,49.0,25.0,-100.00,NW,315,1.0,1.0,40,0.00,,,-99.99,,2013-04-14 14:12:00,
2013-04-14 10:22:00,49.0,25.0,-100.00,NW,315,1.0,1.0,40,0.00,,,-99.99,,2013-04-14 14:22:00,
2013-04-14 10:32:00,50.0,26.0,-100.00,SW,215,4.0,6.0,40,0.00,,,-99.99,,2013-04-14 14:32:00,
2013-04-14 10:42:00,50.0,26.0,-100.00,SSE,165,1.0,4.0,39,0.00,,,-99.99,,2013-04-14 14:42:00,
2013-04-14 10:52:00,50.0,26.0,-100.00,SSE,165,1.0,4.0,39,0.00,,,-99.99,,2013-04-14 14:52:00,
2013-04-14 11:03:00,50.0,26.0,-100.00,West,265,6.0,12.0,39,0.00,,,-99.99,,2013-04-14 15:03:00,
2013-04-14 11:12:00,52.0,27.0,-100.00,SE,125,0.0,1.0,37,0.00,,,-99.99,,2013-04-14 15:12:00,
2013-04-14 11:22:00,52.0,27.0,-100.00,SE,125,0.0,1.0,37,0.00,,,-99.99,,2013-04-14 15:22:00,
2013-04-14 11:33:00,54.0,28.0,-100.00,SW,235,0.0,1.0,37,0.00,,,-99.99,,2013-04-14 15:33:00,
2013-04-14 11:43:00,55.0,28.0,-100.00,NE,40,1.0,2.0,35,0.00,,,-99.99,,2013-04-14 15:43:00,
2013-04-14 11:53:00,55.0,28.0,-100.00,NE,40,1.0,2.0,35,0.00,,,-99.99,,2013-04-14 15:53:00,
2013-04-14 12:04:00,56.0,28.0,-100.00,South,185,1.0,2.0,35,0.00,,,-99.99,,2013-04-14 16:04:00,
2013-04-14 12:13:00,57.0,30.0,-100.00,SSW,205,1.0,2.0,35,0.00,,,-99.99,,2013-04-14 16:13:00,
2013-04-14 12:23:00,57.0,30.0,-100.00,SSW,205,1.0,2.0,35,0.00,,,-99.99,,2013-04-14 16:23:00,
2013-04-14 12:33:00,58.0,29.0,-100.00,ENE,60,1.0,4.0,33,0.00,,,-99.99,,2013-04-14 16:33:00,
2013-04-14 12:43:00,56.0,27.0,-100.00,West,265,5.0,10.0,33,0.00,,,-99.99,,2013-04-14 16:43:00,
2013-04-14 12:53:00,56.0,27.0,-100.00,West,265,5.0,10.0,33,0.00,,,-99.99,,2013-04-14 16:53:00,
2013-04-14 13:02:00,59.0,28.0,-100.00,WSW,240,2.0,4.0,31,0.00,,,-99.99,,2013-04-14 17:02:00,
2013-04-14 13:13:00,60.0,28.0,-100.00,SE,130,1.0,3.0,30,0.00,,,-99.99,,2013-04-14 17:13:00,
2013-04-14 13:22:00,60.0,28.0,-100.00,SE,130,1.0,3.0,30,0.00,,,-99.99,,2013-04-14 17:22:00,
2013-04-14 13:33:00,60.0,28.0,-100.00,SSE,160,1.0,2.0,29,0.00,,,-99.99,,2013-04-14 17:33:00,
2013-04-14 13:42:00,60.0,28.0,-100.00,WSW,250,5.0,6.0,29,0.00,,,-99.99,,2013-04-14 17:42:00,
2013-04-14 13:52:00,60.0,28.0,-100.00,WSW,250,5.0,6.0,29,0.00,,,-99.99,,2013-04-14 17:52:00,
2013-04-14 14:03:00,61.0,28.0,-100.00,East,90,4.0,6.0,29,0.00,,,-99.99,,2013-04-14 18:03:00,
2013-04-14 14:12:00,61.0,28.0,-100.00,NW,305,4.0,6.0,28,0.00,,,-99.99,,2013-04-14 18:12:00,
2013-04-14 14:22:00,61.0,28.0,-100.00,NW,305,4.0,6.0,28,0.00,,,-99.99,,2013-04-14 18:22:00,
2013-04-14 14:33:00,62.0,28.0,-100.00,West,275,5.0,7.0,27,0.00,,,-99.99,,2013-04-14 18:33:00,
2013-04-14 14:43:00,63.0,29.0,-100.00,SSW,205,1.0,2.0,27,0.00,,,-99.99,,2013-04-14 18:43:00,
2013-04-14 14:52:00,63.0,29.0,-100.00,SSW,205,1.0,2.0,27,0.00,,,-99.99,,2013-04-14 18:52:00,
2013-04-14 15:04:00,63.0,29.0,-100.00,WSW,245,1.0,4.0,27,0.00,,,-99.99,,2013-04-14 19:04:00,
2013-04-14 15:12:00,63.0,28.0,-100.00,SE,130,4.0,5.0,27,0.00,,,-99.99,,2013-04-14 19:12:00,
2013-04-14 15:22:00,63.0,28.0,-100.00,SE,130,4.0,5.0,27,0.00,,,-99.99,,2013-04-14 19:22:00,
2013-04-14 15:32:00,65.0,29.0,-100.00,South,190,2.0,2.0,26,0.00,,,-99.99,,2013-04-14 19:32:00,
2013-04-14 15:43:00,64.0,28.0,-100.00,ESE,110,5.0,7.0,26,0.00,,,-99.99,,2013-04-14 19:43:00,
2013-04-14 15:52:00,64.0,28.0,-100.00,ESE,110,5.0,7.0,26,0.00,,,-99.99,,2013-04-14 19:52:00,
2013-04-14 16:03:00,63.0,29.0,-100.00,ESE,120,8.0,9.0,27,0.00,,,-99.99,,2013-04-14 20:03:00,
2013-04-14 16:13:00,62.0,28.0,-100.00,SE,135,5.0,6.0,27,0.00,,,-99.99,,2013-04-14 20:13:00,
2013-04-14 16:22:00,62.0,28.0,-100.00,SE,135,5.0,6.0,27,0.00,,,-99.99,,2013-04-14 20:22:00,
2013-04-14 16:33:00,64.0,30.0,-100.00,SE,130,3.0,4.0,28,0.00,,,-99.99,,2013-04-14 20:33:00,
2013-04-14 16:43:00,63.0,29.0,-100.00,ESE,120,4.0,5.0,28,0.00,,,-99.99,,2013-04-14 20:43:00,
2013-04-14 16:52:00,63.0,29.0,-100.00,ESE,120,4.0,5.0,28,0.00,,,-99.99,,2013-04-14 20:52:00,
2013-04-14 17:02:00,63.0,30.0,-100.00,ESE,120,5.0,6.0,28,0.00,,,-99.99,,2013-04-14 21:02:00,
2013-04-14 17:13:00,63.0,30.0,-100.00,ESE,105,4.0,7.0,28,0.00,,,-99.99,,2013-04-14 21:13:00,
2013-04-14 17:23:00,63.0,30.0,-100.00,ESE,105,4.0,7.0,28,0.00,,,-99.99,,2013-04-14 21:23:00,
2013-04-14 17:33:00,64.0,30.0,-100.00,ESE,110,2.0,4.0,28,0.00,,,-99.99,,2013-04-14 21:33:00,
2013-04-14 17:43:00,65.0,29.0,-100.00,NE,40,2.0,4.0,26,0.00,,,-99.99,,2013-04-14 21:43:00,
2013-04-14 17:53:00,65.0,29.0,-100.00,NE,40,2.0,4.0,26,0.00,,,-99.99,,2013-04-14 21:53:00,
2013-04-14 18:03:00,66.0,30.0,-100.00,NNE,30,2.0,2.0,26,0.00,,,-99.99,,2013-04-14 22:03:00,
2013-04-14 18:13:00,64.0,29.0,-100.00,SE,140,4.0,4.0,27,0.00,,,-99.99,,2013-04-14 22:13:00,
2013-04-14 18:23:00,64.0,29.0,-100.00,SE,140,4.0,4.0,27,0.00,,,-99.99,,2013-04-14 22:23:00,
2013-04-14 18:33:00,64.0,30.0,-100.00,SE,135,4.0,4.0,28,0.00,,,-99.99,,2013-04-14 22:33:00,
2013-04-14 18:52:00,63.0,30.0,-100.00,ESE,115,2.0,2.0,29,0.00,,,-99.99,,2013-04-14 22:52:00,
2013-04-14 19:02:00,63.0,29.0,-100.00,ESE,115,2.0,4.0,28,0.00,,,-99.99,,2013-04-14 23:02:00,
2013-04-14 19:13:00,63.0,30.0,-100.00,SE,135,2.0,3.0,29,0.00,,,-99.99,,2013-04-14 23:13:00,
2013-04-14 19:22:00,63.0,30.0,-100.00,SE,135,2.0,3.0,29,0.00,,,-99.99,,2013-04-14 23:22:00,
2013-04-14 19:33:00,62.0,30.0,-100.00,East,95,1.0,1.0,29,0.00,,,-99.99,,2013-04-14 23:33:00,
2013-04-14 19:43:00,63.0,30.0,-100.00,NW,320,0.0,0.0,29,0.00,,,-99.99,,2013-04-14 23:43:00,
2013-04-14 19:52:00,63.0,30.0,-100.00,NW,320,0.0,0.0,29,0.00,,,-99.99,,2013-04-14 23:52:00,
2013-04-14 20:02:00,62.0,30.0,-100.00,WNW,295,1.0,1.0,30,0.00,,,-99.99,,2013-04-15 00:02:00,
2013-04-14 20:13:00,60.0,29.0,-100.00,ESE,120,0.0,1.0,31,0.00,,,-99.99,,2013-04-15 00:13:00,
2013-04-14 20:23:00,60.0,29.0,-100.00,ESE,120,0.0,1.0,31,0.00,,,-99.99,,2013-04-15 00:23:00,
2013-04-14 20:33:00,60.0,29.0,-100.00,North,0,0.0,1.0,31,0.00,,,-99.99,,2013-04-15 00:33:00,
2013-04-14 20:42:00,59.0,29.0,-100.00,West,265,0.0,1.0,32,0.00,,,-99.99,,2013-04-15 00:42:00,
2013-04-14 20:52:00,59.0,29.0,-100.00,West,265,0.0,1.0,32,0.00,,,-99.99,,2013-04-15 00:52:00,
2013-04-14 21:02:00,59.0,29.0,-100.00,WNW,295,1.0,1.0,32,0.00,,,-99.99,,2013-04-15 01:02:00,
2013-04-14 21:12:00,59.0,30.0,-100.00,East,85,2.0,4.0,33,0.00,,,-99.99,,2013-04-15 01:12:00,
2013-04-14 21:23:00,59.0,30.0,-100.00,East,85,2.0,4.0,33,0.00,,,-99.99,,2013-04-15 01:23:00,
2013-04-14 21:33:00,59.0,30.0,-100.00,NE,35,1.0,3.0,34,0.00,,,-99.99,,2013-04-15 01:33:00,
2013-04-14 21:42:00,58.0,31.0,-100.00,NNW,335,1.0,1.0,35,0.00,,,-99.99,,2013-04-15 01:42:00,
2013-04-14 21:52:00,58.0,31.0,-100.00,NNW,335,1.0,1.0,35,0.00,,,-99.99,,2013-04-15 01:52:00,
2013-04-14 22:03:00,58.0,31.0,-100.00,NNW,335,1.0,1.0,35,0.00,,,-99.99,,2013-04-15 02:03:00,
2013-04-14 22:12:00,58.0,31.0,-100.00,WNW,295,0.0,0.0,36,0.00,,,-99.99,,2013-04-15 02:12:00,
2013-04-14 22:22:00,58.0,31.0,-100.00,WNW,295,0.0,0.0,36,0.00,,,-99.99,,2013-04-15 02:22:00,
2013-04-14 22:32:00,57.0,30.0,-100.00,WNW,295,0.0,0.0,36,0.00,,,-99.99,,2013-04-15 02:32:00,
2013-04-14 22:42:00,57.0,30.0,-100.00,North,350,1.0,1.0,36,0.00,,,-99.99,,2013-04-15 02:42:00,
2013-04-14 22:52:00,57.0,30.0,-100.00,North,350,1.0,1.0,36,0.00,,,-99.99,,2013-04-15 02:52:00,
2013-04-14 23:03:00,57.0,30.0,-100.00,WNW,290,0.0,1.0,36,0.00,,,-99.99,,2013-04-15 03:03:00,
2013-04-14 23:12:00,57.0,31.0,-100.00,West,280,0.0,0.0,37,0.00,,,-99.99,,2013-04-15 03:12:00,
2013-04-14 23:22:00,57.0,31.0,-100.00,West,280,0.0,0.0,37,0.00,,,-99.99,,2013-04-15 03:22:00,
2013-04-14 23:33:00,57.0,31.0,-100.00,NE,55,0.0,1.0,37,0.00,,,-99.99,,2013-04-15 03:33:00,
2013-04-14 23:43:00,56.0,30.0,-100.00,East,85,1.0,2.0,37,0.00,,,-99.99,,2013-04-15 03:43:00,
2013-04-14 23:54:00,56.0,30.0,-100.00,East,85,1.0,2.0,37,0.00,,,-99.99,,2013-04-15 03:54:00,